Time,TemperatureF,DewpointF,PressureIn,WindDirection,WindDirectionDegrees,WindSpeedMPH,WindSpeedGustMPH,Humidity,HourlyPrecipIn,Conditions,Clouds,dailyrainin,SoftwareType,DateUTC
2013-01-17 00:01:00,74.9,69.0,31.00,SSE,150,2.0,2.0,82,0.00,,,0.03,Wunderground v.1.15,2013-01-17 05:01:00,
2013-01-17 00:03:00,74.9,69.0,31.00,ENE,78,2.0,10.0,82,0.00,,,0.03,Wunderground v.1.15,2013-01-17 05:03:00,
2013-01-17 00:09:00,74.8,68.6,31.00,ESE,113,2.0,10.0,81,0.00,,,0.03,Wunderground v.1.15,2013-01-17 05:09:00,
2013-01-17 00:15:00,74.8,68.6,30.99,SE,131,2.0,10.0,81,0.00,,,0.03,Wunderground v.1.15,2013-01-17 05:15:00,
2013-01-17 00:16:00,74.9,68.7,30.99,ESE,117,2.0,10.0,81,0.00,,,0.03,Wunderground v.1.15,2013-01-17 05:16:00,
2013-01-17 00:22:00,74.9,69.0,30.99,ESE,111,2.0,10.0,82,0.00,,,0.03,Wunderground v.1.15,2013-01-17 05:22:00,
2013-01-17 00:28:00,74.9,69.0,30.99,SE,126,2.0,10.0,82,0.00,,,0.03,Wunderground v.1.15,2013-01-17 05:28:00,
2013-01-17 00:33:00,75.0,69.5,30.99,SE,141,3.0,10.0,83,0.00,,,0.03,Wunderground v.1.15,2013-01-17 05:33:00,
2013-01-17 00:39:00,75.1,69.6,30.99,SSE,155,3.0,10.0,83,0.00,,,0.03,Wunderground v.1.15,2013-01-17 05:39:00,
2013-01-17 00:45:00,75.1,69.6,30.99,SE,139,4.0,10.0,83,0.00,,,0.03,Wunderground v.1.15,2013-01-17 05:45:00,
2013-01-17 00:51:00,75.1,69.2,30.99,ENE,68,4.0,10.0,82,0.00,,,0.03,Wunderground v.1.15,2013-01-17 05:51:00,
2013-01-17 00:57:00,75.2,69.3,30.99,ESE,117,4.0,10.0,82,0.00,,,0.03,Wunderground v.1.15,2013-01-17 05:57:00,
2013-01-17 01:02:00,75.1,69.2,30.99,ESE,121,3.0,10.0,82,0.00,,,0.03,Wunderground v.1.15,2013-01-17 06:02:00,
2013-01-17 01:07:00,75.1,69.2,30.99,ESE,111,3.0,10.0,82,0.00,,,0.03,Wunderground v.1.15,2013-01-17 06:07:00,
2013-01-17 01:13:00,75.1,69.6,30.99,ESE,107,3.0,10.0,83,0.00,,,0.03,Wunderground v.1.15,2013-01-17 06:13:00,
2013-01-17 01:19:00,75.1,69.6,30.99,SE,137,3.0,10.0,83,0.00,,,0.03,Wunderground v.1.15,2013-01-17 06:19:00,
2013-01-17 01:25:00,75.1,69.6,30.99,ESE,118,3.0,10.0,83,0.00,,,0.03,Wunderground v.1.15,2013-01-17 06:25:00,
2013-01-17 01:30:00,75.1,69.6,30.99,SE,131,3.0,3.0,83,0.00,,,0.03,Wunderground v.1.15,2013-01-17 06:30:00,
2013-01-17 01:36:00,75.1,69.6,30.99,SSE,158,3.0,10.0,83,0.00,,,0.03,Wunderground v.1.15,2013-01-17 06:36:00,
2013-01-17 01:42:00,75.2,69.7,30.99,SE,146,4.0,10.0,83,0.00,,,0.03,Wunderground v.1.15,2013-01-17 06:42:00,
2013-01-17 01:47:00,75.3,70.1,30.99,SSE,155,4.0,10.0,84,0.00,,,0.03,Wunderground v.1.15,2013-01-17 06:47:00,
2013-01-17 01:53:00,75.2,70.0,30.99,ESE,111,3.0,10.0,84,0.00,,,0.03,Wunderground v.1.15,2013-01-17 06:53:00,
2013-01-17 01:59:00,75.1,69.9,30.99,East,98,3.0,10.0,84,0.00,,,0.03,Wunderground v.1.15,2013-01-17 06:59:00,
2013-01-17 02:05:00,75.0,69.5,30.99,SSE,150,3.0,10.0,83,0.00,,,0.03,Wunderground v.1.15,2013-01-17 07:05:00,
2013-01-17 02:10:00,75.0,69.8,30.99,SE,127,3.0,3.0,84,0.00,,,0.03,Wunderground v.1.15,2013-01-17 07:10:00,
2013-01-17 02:16:00,75.0,70.2,30.99,SE,135,3.0,10.0,85,0.00,,,0.03,Wunderground v.1.15,2013-01-17 07:16:00,
2013-01-17 02:22:00,74.9,69.7,30.99,SSE,162,2.0,10.0,84,0.00,,,0.03,Wunderground v.1.15,2013-01-17 07:22:00,
2013-01-17 02:28:00,74.8,70.0,30.99,SE,143,2.0,10.0,85,0.00,,,0.00,Wunderground v.1.15,2013-01-17 07:28:00,
2013-01-17 02:33:00,74.8,69.6,30.99,ESE,117,2.0,10.0,84,0.00,,,0.00,Wunderground v.1.15,2013-01-17 07:33:00,
2013-01-17 02:39:00,74.9,70.1,30.99,SE,132,3.0,10.0,85,0.00,,,0.00,Wunderground v.1.15,2013-01-17 07:39:00,
2013-01-17 02:45:00,74.8,70.0,30.99,SSE,161,3.0,10.0,85,0.00,,,0.00,Wunderground v.1.15,2013-01-17 07:45:00,
2013-01-17 02:51:00,74.8,70.0,30.98,SE,131,3.0,10.0,85,0.00,,,0.00,Wunderground v.1.15,2013-01-17 07:51:00,
2013-01-17 02:57:00,74.8,69.6,30.98,SSW,198,3.0,10.0,84,0.00,,,0.00,Wunderground v.1.15,2013-01-17 07:57:00,
2013-01-17 03:03:00,74.8,69.6,30.98,SE,141,3.0,10.0,84,0.00,,,0.00,Wunderground v.1.15,2013-01-17 08:03:00,
2013-01-17 03:08:00,74.8,69.6,30.98,SW,217,3.0,10.0,84,0.00,,,0.00,Wunderground v.1.15,2013-01-17 08:08:00,
2013-01-17 03:13:00,74.8,69.6,30.98,SSW,210,3.0,10.0,84,0.00,,,0.00,Wunderground v.1.15,2013-01-17 08:13:00,
2013-01-17 03:19:00,74.8,70.0,30.98,ESE,121,3.0,10.0,85,0.00,,,0.00,Wunderground v.1.15,2013-01-17 08:19:00,
2013-01-17 03:25:00,74.8,70.0,30.98,ESE,107,2.0,10.0,85,0.00,,,0.00,Wunderground v.1.15,2013-01-17 08:25:00,
2013-01-17 03:31:00,74.6,69.4,30.98,SE,127,3.0,10.0,84,0.00,,,0.00,Wunderground v.1.15,2013-01-17 08:31:00,
2013-01-17 03:36:00,74.7,69.5,30.98,SSW,204,3.0,10.0,84,0.00,,,0.00,Wunderground v.1.15,2013-01-17 08:36:00,
2013-01-17 03:42:00,74.8,69.6,30.98,SSW,204,3.0,10.0,84,0.00,,,0.00,Wunderground v.1.15,2013-01-17 08:42:00,
2013-01-17 03:48:00,74.8,69.6,30.98,East,92,3.0,10.0,84,0.00,,,0.00,Wunderground v.1.15,2013-01-17 08:48:00,
2013-01-17 03:54:00,74.8,70.0,30.98,SE,144,3.0,10.0,85,0.00,,,0.00,Wunderground v.1.15,2013-01-17 08:54:00,
2013-01-17 03:59:00,74.7,69.9,30.98,SE,132,3.0,10.0,85,0.00,,,0.00,Wunderground v.1.15,2013-01-17 08:59:00,
2013-01-17 04:05:00,74.7,69.5,30.98,SSE,152,3.0,10.0,84,0.00,,,0.00,Wunderground v.1.15,2013-01-17 09:05:00,
2013-01-17 04:11:00,74.7,69.9,30.98,SSW,193,3.0,10.0,85,0.00,,,0.00,Wunderground v.1.15,2013-01-17 09:11:00,
2013-01-17 04:17:00,74.7,69.5,30.98,SSE,156,3.0,10.0,84,0.00,,,0.00,Wunderground v.1.15,2013-01-17 09:17:00,
2013-01-17 04:23:00,74.8,69.6,30.98,SE,139,3.0,10.0,84,0.00,,,0.00,Wunderground v.1.15,2013-01-17 09:23:00,
2013-01-17 04:29:00,74.8,69.6,30.98,SW,214,3.0,10.0,84,0.00,,,0.00,Wunderground v.1.15,2013-01-17 09:29:00,
2013-01-17 04:35:00,74.9,69.7,30.98,SSE,164,3.0,10.0,84,0.00,,,0.00,Wunderground v.1.15,2013-01-17 09:35:00,
2013-01-17 04:40:00,74.9,69.7,30.98,SSE,165,3.0,10.0,84,0.00,,,0.00,Wunderground v.1.15,2013-01-17 09:40:00,
2013-01-17 04:46:00,74.9,69.7,30.98,SSW,194,3.0,10.0,84,0.00,,,0.00,Wunderground v.1.15,2013-01-17 09:46:00,
2013-01-17 04:52:00,74.9,69.4,30.98,SSE,150,2.0,10.0,83,0.00,,,0.00,Wunderground v.1.15,2013-01-17 09:52:00,
2013-01-17 04:58:00,75.0,69.8,30.98,SE,135,3.0,10.0,84,0.00,,,0.00,Wunderground v.1.15,2013-01-17 09:58:00,
2013-01-17 05:03:00,74.9,69.7,30.98,SE,137,3.0,10.0,84,0.00,,,0.00,Wunderground v.1.15,2013-01-17 10:03:00,
2013-01-17 05:09:00,74.9,69.4,30.98,SSE,160,3.0,10.0,83,0.00,,,0.00,Wunderground v.1.15,2013-01-17 10:09:00,
2013-01-17 05:15:00,75.0,69.8,30.99,SSE,162,3.0,10.0,84,0.00,,,0.00,Wunderground v.1.15,2013-01-17 10:15:00,
2013-01-17 05:21:00,75.1,69.9,30.99,ESE,118,3.0,10.0,84,0.00,,,0.00,Wunderground v.1.15,2013-01-17 10:21:00,
2013-01-17 05:27:00,75.1,69.9,30.99,ESE,120,3.0,10.0,84,0.00,,,0.00,Wunderground v.1.15,2013-01-17 10:27:00,
2013-01-17 05:33:00,75.1,69.6,30.99,SW,219,3.0,10.0,83,0.00,,,0.00,Wunderground v.1.15,2013-01-17 10:33:00,
2013-01-17 05:39:00,75.1,69.6,30.99,SSE,167,3.0,10.0,83,0.00,,,0.00,Wunderground v.1.15,2013-01-17 10:39:00,
2013-01-17 05:44:00,75.2,69.7,30.99,ESE,119,3.0,10.0,83,0.00,,,0.00,Wunderground v.1.15,2013-01-17 10:44:00,
2013-01-17 05:50:00,75.1,69.6,30.99,ESE,113,3.0,10.0,83,0.00,,,0.00,Wunderground v.1.15,2013-01-17 10:50:00,
2013-01-17 05:55:00,75.2,70.0,30.99,South,169,3.0,10.0,84,0.00,,,0.00,Wunderground v.1.15,2013-01-17 10:55:00,
2013-01-17 06:01:00,75.2,69.7,30.99,SE,132,4.0,10.0,83,0.00,,,0.00,Wunderground v.1.15,2013-01-17 11:01:00,
2013-01-17 06:06:00,75.1,69.2,30.99,SSE,148,3.0,10.0,82,0.00,,,0.00,Wunderground v.1.15,2013-01-17 11:06:00,
2013-01-17 06:12:00,75.3,69.8,30.99,ESE,109,3.0,10.0,83,0.00,,,0.00,Wunderground v.1.15,2013-01-17 11:12:00,
2013-01-17 06:18:00,75.3,70.1,30.99,ESE,115,3.0,10.0,84,0.00,,,0.00,Wunderground v.1.15,2013-01-17 11:18:00,
2013-01-17 06:23:00,75.2,69.7,30.99,SSE,150,3.0,10.0,83,0.00,,,0.00,Wunderground v.1.15,2013-01-17 11:23:00,
2013-01-17 06:28:00,75.3,70.1,30.99,ESE,120,2.0,10.0,84,0.00,,,0.00,Wunderground v.1.15,2013-01-17 11:28:00,
2013-01-17 06:34:00,75.2,70.0,31.00,ESE,122,2.0,10.0,84,0.00,,,0.00,Wunderground v.1.15,2013-01-17 11:34:00,
2013-01-17 06:40:00,75.2,70.0,31.00,ESE,118,3.0,3.0,84,0.00,,,0.00,Wunderground v.1.15,2013-01-17 11:40:00,
2013-01-17 06:46:00,75.2,70.0,31.00,SSE,150,3.0,10.0,84,0.00,,,0.00,Wunderground v.1.15,2013-01-17 11:46:00,
2013-01-17 06:51:00,75.1,70.3,31.00,ESE,114,3.0,5.0,85,0.00,,,0.00,Wunderground v.1.15,2013-01-17 11:51:00,
2013-01-17 06:57:00,75.2,70.0,31.00,ESE,112,3.0,10.0,84,0.00,,,0.00,Wunderground v.1.15,2013-01-17 11:57:00,
2013-01-17 07:02:00,75.2,70.0,31.01,SE,146,3.0,10.0,84,0.00,,,0.00,Wunderground v.1.15,2013-01-17 12:02:00,
2013-01-17 07:08:00,75.2,70.4,31.00,ESE,111,3.0,10.0,85,0.00,,,0.00,Wunderground v.1.15,2013-01-17 12:08:00,
2013-01-17 07:13:00,75.3,70.5,31.01,South,188,3.0,10.0,85,0.00,,,0.00,Wunderground v.1.15,2013-01-17 12:13:00,
2013-01-17 07:19:00,75.3,70.5,31.01,SW,219,3.0,10.0,85,0.00,,,0.00,Wunderground v.1.15,2013-01-17 12:19:00,
2013-01-17 07:25:00,75.3,70.1,31.01,ESE,120,3.0,10.0,84,0.00,,,0.00,Wunderground v.1.15,2013-01-17 12:25:00,
2013-01-17 07:30:00,75.4,70.2,31.01,SE,131,3.0,3.0,84,0.00,,,0.00,Wunderground v.1.15,2013-01-17 12:30:00,
2013-01-17 07:36:00,75.5,70.7,31.01,SSE,150,3.0,10.0,85,0.00,,,0.00,Wunderground v.1.15,2013-01-17 12:36:00,
2013-01-17 07:42:00,75.6,70.8,31.01,SE,146,2.0,10.0,85,0.00,,,0.00,Wunderground v.1.15,2013-01-17 12:42:00,
2013-01-17 07:48:00,75.6,70.8,31.02,SE,132,2.0,10.0,85,0.00,,,0.00,Wunderground v.1.15,2013-01-17 12:48:00,
2013-01-17 07:53:00,75.7,70.9,31.02,ESE,104,3.0,10.0,85,0.00,,,0.00,Wunderground v.1.15,2013-01-17 12:53:00,
2013-01-17 07:59:00,75.7,70.5,31.02,SSE,152,3.0,10.0,84,0.00,,,0.00,Wunderground v.1.15,2013-01-17 12:59:00,
2013-01-17 08:05:00,75.8,71.0,31.02,ESE,114,3.0,10.0,85,0.00,,,0.00,Wunderground v.1.15,2013-01-17 13:05:00,
2013-01-17 08:11:00,75.9,71.1,31.03,ESE,113,3.0,10.0,85,0.00,,,0.00,Wunderground v.1.15,2013-01-17 13:11:00,
2013-01-17 08:16:00,75.9,71.1,31.03,South,173,3.0,10.0,85,0.00,,,0.00,Wunderground v.1.15,2013-01-17 13:16:00,
2013-01-17 08:22:00,76.0,71.2,31.03,ESE,108,3.0,10.0,85,0.00,,,0.00,Wunderground v.1.15,2013-01-17 13:22:00,
2013-01-17 08:28:00,76.0,70.8,31.03,SE,129,3.0,10.0,84,0.00,,,0.00,Wunderground v.1.15,2013-01-17 13:28:00,
2013-01-17 08:34:00,76.1,70.9,31.03,South,191,3.0,10.0,84,0.00,,,0.00,Wunderground v.1.15,2013-01-17 13:34:00,
2013-01-17 08:39:00,76.3,71.5,31.03,ESE,103,3.0,10.0,85,0.00,,,0.00,Wunderground v.1.15,2013-01-17 13:39:00,
2013-01-17 08:45:00,76.4,71.2,31.03,East,93,3.0,10.0,84,0.00,,,0.00,Wunderground v.1.15,2013-01-17 13:45:00,
2013-01-17 08:51:00,76.4,71.2,31.04,SSE,153,3.0,10.0,84,0.00,,,0.00,Wunderground v.1.15,2013-01-17 13:51:00,
2013-01-17 08:57:00,76.4,71.2,31.03,SSW,197,3.0,10.0,84,0.00,,,0.00,Wunderground v.1.15,2013-01-17 13:57:00,
2013-01-17 09:02:00,76.6,71.4,31.04,SE,142,4.0,10.0,84,0.00,,,0.00,Wunderground v.1.15,2013-01-17 14:02:00,
2013-01-17 09:08:00,77.0,71.8,31.04,East,82,4.0,10.0,84,0.00,,,0.00,Wunderground v.1.15,2013-01-17 14:08:00,
2013-01-17 09:14:00,77.4,71.8,31.04,SE,128,3.0,10.0,83,0.00,,,0.00,Wunderground v.1.15,2013-01-17 14:14:00,
2013-01-17 09:20:00,77.5,71.9,31.04,SSW,208,4.0,4.0,83,0.00,,,0.00,Wunderground v.1.15,2013-01-17 14:20:00,
2013-01-17 09:25:00,77.5,71.9,31.04,SE,146,4.0,10.0,83,0.00,,,0.00,Wunderground v.1.15,2013-01-17 14:25:00,
2013-01-17 09:31:00,77.5,71.9,31.05,SSE,150,4.0,10.0,83,0.00,,,0.00,Wunderground v.1.15,2013-01-17 14:31:00,
2013-01-17 09:37:00,77.7,72.1,31.05,ESE,117,3.0,10.0,83,0.00,,,0.00,Wunderground v.1.15,2013-01-17 14:37:00,
2013-01-17 09:43:00,77.9,72.3,31.05,South,174,3.0,10.0,83,0.00,,,0.00,Wunderground v.1.15,2013-01-17 14:43:00,
2013-01-17 09:48:00,77.9,72.0,31.06,NNE,12,2.0,10.0,82,0.00,,,0.00,Wunderground v.1.15,2013-01-17 14:48:00,
2013-01-17 09:53:00,76.1,69.1,31.06,WSW,252,1.0,10.0,79,0.00,,,0.00,Wunderground v.1.15,2013-01-17 14:53:00,
2013-01-17 09:59:00,74.0,68.5,31.06,WNW,295,2.0,10.0,83,0.00,,,0.00,Wunderground v.1.15,2013-01-17 14:59:00,
2013-01-17 10:05:00,72.4,67.6,31.06,NW,314,2.0,10.0,85,0.00,,,0.00,Wunderground v.1.15,2013-01-17 15:05:00,
2013-01-17 10:11:00,71.3,67.6,31.06,WNW,296,2.0,10.0,88,0.00,,,0.00,Wunderground v.1.15,2013-01-17 15:11:00,
2013-01-17 10:16:00,70.7,67.6,31.07,West,259,3.0,10.0,90,4.03,,,0.13,Wunderground v.1.15,2013-01-17 15:16:00,
2013-01-17 10:22:00,69.8,67.4,31.07,NNW,345,2.0,10.0,92,0.32,,,0.26,Wunderground v.1.15,2013-01-17 15:22:00,
2013-01-17 10:28:00,69.6,67.8,31.07,WNW,301,2.0,10.0,94,0.16,,,0.28,Wunderground v.1.15,2013-01-17 15:28:00,
2013-01-17 10:34:00,69.5,67.4,31.07,WNW,283,2.0,3.0,93,0.08,,,0.28,Wunderground v.1.15,2013-01-17 15:34:00,
2013-01-17 10:39:00,69.6,67.8,31.07,WSW,246,1.0,3.0,94,0.05,,,0.28,Wunderground v.1.15,2013-01-17 15:39:00,
2013-01-17 10:45:00,70.0,68.5,31.07,West,259,1.0,3.0,95,0.00,,,0.28,Wunderground v.1.15,2013-01-17 15:45:00,
2013-01-17 10:51:00,70.5,68.7,31.06,NW,315,1.0,3.0,94,0.00,,,0.28,Wunderground v.1.15,2013-01-17 15:51:00,
2013-01-17 10:56:00,70.7,69.2,31.06,NW,325,1.0,3.0,95,0.00,,,0.28,Wunderground v.1.15,2013-01-17 15:56:00,
2013-01-17 11:02:00,71.2,69.4,31.05,NW,308,1.0,3.0,94,0.00,,,0.28,Wunderground v.1.15,2013-01-17 16:02:00,
2013-01-17 11:08:00,71.7,69.9,31.05,WSW,256,1.0,3.0,94,0.00,,,0.28,Wunderground v.1.15,2013-01-17 16:08:00,
2013-01-17 11:13:00,72.5,70.7,31.05,NNW,338,1.0,3.0,94,0.00,,,0.28,Wunderground v.1.15,2013-01-17 16:13:00,
2013-01-17 11:19:00,72.2,69.4,31.05,NW,310,1.0,3.0,91,0.00,,,0.28,Wunderground v.1.15,2013-01-17 16:19:00,
2013-01-17 11:24:00,71.7,68.6,31.05,WNW,302,1.0,3.0,90,0.00,,,0.29,Wunderground v.1.15,2013-01-17 16:24:00,
2013-01-17 11:30:00,70.8,68.0,31.06,NW,304,2.0,3.0,91,0.12,,,0.30,Wunderground v.1.15,2013-01-17 16:30:00,
2013-01-17 11:35:00,70.3,67.9,31.05,West,278,1.0,3.0,92,0.06,,,0.30,Wunderground v.1.15,2013-01-17 16:35:00,
2013-01-17 11:41:00,70.0,67.9,31.05,WNW,297,1.0,3.0,93,0.04,,,0.30,Wunderground v.1.15,2013-01-17 16:41:00,
2013-01-17 11:46:00,69.9,67.8,31.05,West,280,2.0,6.0,93,0.00,,,0.30,Wunderground v.1.15,2013-01-17 16:46:00,
2013-01-17 11:52:00,69.5,67.4,31.05,West,280,2.0,3.0,93,0.00,,,0.31,Wunderground v.1.15,2013-01-17 16:52:00,
2013-01-17 11:58:00,69.1,67.3,31.05,West,259,2.0,5.0,94,0.05,,,0.32,Wunderground v.1.15,2013-01-17 16:58:00,
2013-01-17 12:04:00,69.2,67.4,31.04,NW,310,2.0,3.0,94,0.13,,,0.33,Wunderground v.1.15,2013-01-17 17:04:00,
2013-01-17 12:09:00,69.3,67.5,31.04,WNW,283,1.0,3.0,94,0.17,,,0.34,Wunderground v.1.15,2013-01-17 17:09:00,
2013-01-17 12:15:00,69.3,67.5,31.03,North,9,0.0,3.0,94,0.06,,,0.34,Wunderground v.1.15,2013-01-17 17:15:00,
2013-01-17 12:20:00,69.2,67.4,31.02,NNE,13,0.0,3.0,94,0.04,,,0.34,Wunderground v.1.15,2013-01-17 17:20:00,
2013-01-17 12:26:00,69.7,68.5,31.02,North,355,0.0,3.0,96,0.00,,,0.34,Wunderground v.1.15,2013-01-17 17:26:00,
2013-01-17 12:31:00,70.1,68.6,31.01,NW,323,0.0,3.0,95,0.00,,,0.34,Wunderground v.1.15,2013-01-17 17:31:00,
2013-01-17 12:37:00,71.2,70.0,31.01,WNW,302,0.0,3.0,96,0.00,,,0.34,Wunderground v.1.15,2013-01-17 17:37:00,
2013-01-17 12:43:00,71.8,70.0,31.00,NNE,16,0.0,3.0,94,0.00,,,0.34,Wunderground v.1.15,2013-01-17 17:43:00,
2013-01-17 12:48:00,72.0,69.9,31.00,NNW,345,0.0,3.0,93,0.00,,,0.34,Wunderground v.1.15,2013-01-17 17:48:00,
2013-01-17 12:54:00,72.0,69.5,31.00,NNW,344,0.0,3.0,92,0.00,,,0.34,Wunderground v.1.15,2013-01-17 17:54:00,
2013-01-17 13:00:00,72.2,69.7,31.00,North,349,0.0,3.0,92,0.00,,,0.34,Wunderground v.1.15,2013-01-17 18:00:00,
2013-01-17 13:06:00,72.6,70.1,30.99,North,349,0.0,3.0,92,0.00,,,0.34,Wunderground v.1.15,2013-01-17 18:06:00,
2013-01-17 13:11:00,72.7,69.9,30.99,North,360,0.0,3.0,91,0.00,,,0.34,Wunderground v.1.15,2013-01-17 18:11:00,
2013-01-17 13:17:00,72.6,68.8,30.99,WNW,283,0.0,3.0,88,0.00,,,0.34,Wunderground v.1.15,2013-01-17 18:17:00,
2013-01-17 13:23:00,72.6,68.8,30.98,NNE,22,0.0,3.0,88,0.00,,,0.34,Wunderground v.1.15,2013-01-17 18:23:00,
2013-01-17 13:28:00,72.6,69.2,30.98,NNE,22,0.0,3.0,89,0.00,,,0.34,Wunderground v.1.15,2013-01-17 18:28:00,
2013-01-17 13:34:00,73.2,69.4,30.98,NNE,22,0.0,3.0,88,0.00,,,0.34,Wunderground v.1.15,2013-01-17 18:34:00,
2013-01-17 13:39:00,73.2,68.8,30.97,NNE,22,0.0,3.0,86,0.00,,,0.34,Wunderground v.1.15,2013-01-17 18:39:00,
2013-01-17 13:45:00,73.5,69.4,30.97,NNE,22,0.0,3.0,87,0.00,,,0.34,Wunderground v.1.15,2013-01-17 18:45:00,
2013-01-17 13:51:00,74.2,70.1,30.97,NNE,21,0.0,3.0,87,0.00,,,0.34,Wunderground v.1.15,2013-01-17 18:51:00,
2013-01-17 13:57:00,74.5,69.3,30.97,NNE,22,0.0,3.0,84,0.00,,,0.34,Wunderground v.1.15,2013-01-17 18:57:00,
2013-01-17 14:02:00,74.4,69.2,30.97,NNE,21,0.0,3.0,84,0.00,,,0.34,Wunderground v.1.15,2013-01-17 19:02:00,
2013-01-17 14:08:00,74.5,69.0,30.97,NNE,22,0.0,3.0,83,0.00,,,0.34,Wunderground v.1.15,2013-01-17 19:08:00,
2013-01-17 14:13:00,74.6,69.4,30.97,NNE,22,0.0,3.0,84,0.00,,,0.34,Wunderground v.1.15,2013-01-17 19:13:00,
2013-01-17 14:19:00,74.9,69.4,30.97,West,265,0.0,3.0,83,0.00,,,0.34,Wunderground v.1.15,2013-01-17 19:19:00,
2013-01-17 14:24:00,74.6,68.7,30.97,West,266,0.0,3.0,82,0.00,,,0.34,Wunderground v.1.15,2013-01-17 19:24:00,
2013-01-17 14:30:00,74.8,69.3,30.97,West,265,0.0,3.0,83,0.00,,,0.34,Wunderground v.1.15,2013-01-17 19:30:00,
2013-01-17 14:36:00,74.7,68.5,30.97,WSW,245,1.0,3.0,81,0.00,,,0.34,Wunderground v.1.15,2013-01-17 19:36:00,
2013-01-17 14:41:00,75.1,69.2,30.97,WSW,257,0.0,3.0,82,0.00,,,0.34,Wunderground v.1.15,2013-01-17 19:41:00,
2013-01-17 14:47:00,75.2,69.0,30.97,SW,236,0.0,3.0,81,0.00,,,0.34,Wunderground v.1.15,2013-01-17 19:47:00,
2013-01-17 14:53:00,75.1,68.1,30.97,WSW,250,1.0,3.0,79,0.00,,,0.34,Wunderground v.1.15,2013-01-17 19:53:00,
2013-01-17 14:58:00,75.0,68.0,30.97,West,269,1.0,3.0,79,0.00,,,0.34,Wunderground v.1.15,2013-01-17 19:58:00,
2013-01-17 15:04:00,75.0,67.7,30.97,West,280,1.0,3.0,78,0.00,,,0.34,Wunderground v.1.15,2013-01-17 20:04:00,
2013-01-17 15:09:00,75.1,68.5,30.97,WNW,282,1.0,3.0,80,0.00,,,0.34,Wunderground v.1.15,2013-01-17 20:09:00,
2013-01-17 15:15:00,75.0,67.7,30.97,WSW,253,1.0,3.0,78,0.00,,,0.34,Wunderground v.1.15,2013-01-17 20:15:00,
2013-01-17 15:21:00,75.0,67.3,30.97,West,276,1.0,3.0,77,0.00,,,0.34,Wunderground v.1.15,2013-01-17 20:21:00,
2013-01-17 15:26:00,75.4,67.7,30.97,South,186,1.0,4.0,77,0.00,,,0.34,Wunderground v.1.15,2013-01-17 20:26:00,
2013-01-17 15:32:00,75.8,67.7,30.97,West,272,1.0,3.0,76,0.00,,,0.34,Wunderground v.1.15,2013-01-17 20:32:00,
2013-01-17 15:37:00,76.0,68.3,30.97,WSW,255,1.0,3.0,77,0.00,,,0.34,Wunderground v.1.15,2013-01-17 20:37:00,
2013-01-17 15:43:00,76.8,69.8,30.97,West,259,0.0,3.0,79,0.00,,,0.34,Wunderground v.1.15,2013-01-17 20:43:00,
2013-01-17 15:49:00,78.0,69.8,30.97,SW,215,0.0,3.0,76,0.00,,,0.34,Wunderground v.1.15,2013-01-17 20:49:00,
2013-01-17 15:54:00,78.4,69.4,30.97,SW,218,1.0,5.0,74,0.00,,,0.34,Wunderground v.1.15,2013-01-17 20:54:00,
2013-01-17 16:00:00,78.4,68.2,30.97,WSW,256,2.0,3.0,71,0.00,,,0.34,Wunderground v.1.15,2013-01-17 21:00:00,
2013-01-17 16:05:00,78.0,68.6,30.97,SW,215,3.0,6.0,73,0.00,,,0.34,Wunderground v.1.15,2013-01-17 21:05:00,
2013-01-17 16:11:00,77.6,68.7,30.97,WNW,287,3.0,3.0,74,0.00,,,0.34,Wunderground v.1.15,2013-01-17 21:11:00,
2013-01-17 16:16:00,77.6,68.7,30.97,SSW,209,2.0,3.0,74,0.00,,,0.34,Wunderground v.1.15,2013-01-17 21:16:00,
2013-01-17 16:22:00,77.8,68.4,30.97,West,262,2.0,4.0,73,0.00,,,0.34,Wunderground v.1.15,2013-01-17 21:22:00,
2013-01-17 16:27:00,77.8,68.4,30.97,SW,233,2.0,7.0,73,0.00,,,0.34,Wunderground v.1.15,2013-01-17 21:27:00,
2013-01-17 16:33:00,77.6,68.3,30.97,WSW,256,2.0,3.0,73,0.00,,,0.34,Wunderground v.1.15,2013-01-17 21:33:00,
2013-01-17 16:39:00,77.8,68.4,30.97,SSW,194,2.0,3.0,73,0.00,,,0.34,Wunderground v.1.15,2013-01-17 21:39:00,
2013-01-17 16:44:00,77.9,68.5,30.97,SW,214,2.0,3.0,73,0.00,,,0.34,Wunderground v.1.15,2013-01-17 21:44:00,
2013-01-17 16:50:00,77.6,68.7,30.97,West,261,2.0,3.0,74,0.00,,,0.34,Wunderground v.1.15,2013-01-17 21:50:00,
2013-01-17 16:55:00,77.6,69.0,30.97,South,191,2.0,3.0,75,0.00,,,0.34,Wunderground v.1.15,2013-01-17 21:55:00,
2013-01-17 17:01:00,77.6,69.0,30.98,SW,218,2.0,4.0,75,0.00,,,0.34,Wunderground v.1.15,2013-01-17 22:01:00,
2013-01-17 17:06:00,77.2,69.0,30.98,West,269,2.0,4.0,76,0.00,,,0.34,Wunderground v.1.15,2013-01-17 22:06:00,
2013-01-17 17:12:00,77.4,69.2,30.98,WSW,252,2.0,3.0,76,0.00,,,0.34,Wunderground v.1.15,2013-01-17 22:12:00,
2013-01-17 17:18:00,76.9,68.8,30.98,WSW,245,1.0,4.0,76,0.00,,,0.34,Wunderground v.1.15,2013-01-17 22:18:00,
2013-01-17 17:23:00,76.5,68.7,30.98,West,263,2.0,3.0,77,0.00,,,0.34,Wunderground v.1.15,2013-01-17 22:23:00,
2013-01-17 17:28:00,75.9,68.5,30.98,West,273,2.0,3.0,78,0.00,,,0.34,Wunderground v.1.15,2013-01-17 22:28:00,
2013-01-17 17:34:00,75.3,68.7,30.98,West,263,2.0,3.0,80,0.00,,,0.34,Wunderground v.1.15,2013-01-17 22:34:00,
2013-01-17 17:40:00,74.8,68.6,30.98,SSW,198,2.0,2.0,81,0.00,,,0.34,Wunderground v.1.15,2013-01-17 22:40:00,
2013-01-17 17:45:00,74.5,69.0,30.98,SW,226,1.0,3.0,83,0.00,,,0.34,Wunderground v.1.15,2013-01-17 22:45:00,
2013-01-17 17:51:00,74.2,69.1,30.98,WSW,245,1.0,3.0,84,0.00,,,0.34,Wunderground v.1.15,2013-01-17 22:51:00,
2013-01-17 17:56:00,73.9,69.1,30.99,SW,215,1.0,3.0,85,0.00,,,0.34,Wunderground v.1.15,2013-01-17 22:56:00,
2013-01-17 18:02:00,73.8,69.3,30.99,SW,235,0.0,3.0,86,0.00,,,0.34,Wunderground v.1.15,2013-01-17 23:02:00,
2013-01-17 18:08:00,73.7,69.6,30.99,WSW,249,1.0,3.0,87,0.00,,,0.34,Wunderground v.1.15,2013-01-17 23:08:00,
2013-01-17 18:13:00,73.7,69.6,30.99,West,263,1.0,3.0,87,0.00,,,0.34,Wunderground v.1.15,2013-01-17 23:13:00,
2013-01-17 18:19:00,73.7,69.9,30.99,WSW,252,0.0,3.0,88,0.00,,,0.34,Wunderground v.1.15,2013-01-17 23:19:00,
2013-01-17 18:24:00,73.7,69.9,30.99,West,261,0.0,3.0,88,0.00,,,0.34,Wunderground v.1.15,2013-01-17 23:24:00,
2013-01-17 18:30:00,73.6,70.2,31.00,WSW,240,1.0,1.0,89,0.00,,,0.34,Wunderground v.1.15,2013-01-17 23:30:00,
2013-01-17 18:35:00,73.6,70.2,31.00,WSW,241,1.0,3.0,89,0.00,,,0.34,Wunderground v.1.15,2013-01-17 23:35:00,
2013-01-17 18:41:00,73.5,70.1,31.00,West,260,1.0,4.0,89,0.00,,,0.34,Wunderground v.1.15,2013-01-17 23:41:00,
2013-01-17 18:46:00,73.4,70.0,31.00,West,262,1.0,4.0,89,0.00,,,0.34,Wunderground v.1.15,2013-01-17 23:46:00,
2013-01-17 18:52:00,73.3,69.5,31.00,NW,304,2.0,3.0,88,0.00,,,0.34,Wunderground v.1.15,2013-01-17 23:52:00,
2013-01-17 18:57:00,72.8,69.0,31.00,WSW,243,3.0,3.0,88,0.00,,,0.34,Wunderground v.1.15,2013-01-17 23:57:00,
2013-01-17 19:02:00,72.5,68.7,31.00,NW,325,3.0,4.0,88,0.00,,,0.34,Wunderground v.1.15,2013-01-18 00:02:00,
2013-01-17 19:08:00,72.2,68.4,31.01,West,271,3.0,4.0,88,0.00,,,0.34,Wunderground v.1.15,2013-01-18 00:08:00,
2013-01-17 19:13:00,72.0,68.2,31.01,West,277,3.0,4.0,88,0.00,,,0.34,Wunderground v.1.15,2013-01-18 00:13:00,
2013-01-17 19:19:00,71.7,68.0,31.01,NW,326,3.0,4.0,88,0.00,,,0.34,Wunderground v.1.15,2013-01-18 00:19:00,
2013-01-17 19:24:00,71.6,68.2,31.01,NW,310,3.0,4.0,89,0.00,,,0.34,Wunderground v.1.15,2013-01-18 00:24:00,
2013-01-17 19:30:00,71.4,67.7,31.02,NW,304,3.0,3.0,88,0.00,,,0.34,Wunderground v.1.15,2013-01-18 00:30:00,
2013-01-17 19:35:00,71.1,67.4,31.02,NW,309,3.0,5.0,88,0.00,,,0.34,Wunderground v.1.15,2013-01-18 00:35:00,
2013-01-17 19:41:00,71.0,67.6,31.02,North,5,3.0,6.0,89,0.00,,,0.34,Wunderground v.1.15,2013-01-18 00:41:00,
2013-01-17 19:47:00,71.0,67.3,31.02,WNW,295,3.0,6.0,88,0.00,,,0.34,Wunderground v.1.15,2013-01-18 00:47:00,
2013-01-17 19:52:00,70.9,67.2,31.02,NW,309,3.0,6.0,88,0.00,,,0.34,Wunderground v.1.15,2013-01-18 00:52:00,
2013-01-17 19:58:00,70.8,67.1,31.02,NNW,330,4.0,6.0,88,0.00,,,0.34,Wunderground v.1.15,2013-01-18 00:58:00,
2013-01-17 20:03:00,70.7,67.3,31.02,NW,310,4.0,4.0,89,0.00,,,0.34,Wunderground v.1.15,2013-01-18 01:03:00,
2013-01-17 20:09:00,70.5,66.8,31.03,NNW,342,4.0,6.0,88,0.00,,,0.34,Wunderground v.1.15,2013-01-18 01:09:00,
2013-01-17 20:14:00,70.3,66.9,31.03,NW,323,4.0,5.0,89,0.00,,,0.34,Wunderground v.1.15,2013-01-18 01:14:00,
2013-01-17 20:20:00,70.0,66.6,31.03,NNW,336,4.0,5.0,89,0.00,,,0.34,Wunderground v.1.15,2013-01-18 01:20:00,
2013-01-17 20:25:00,69.9,66.8,31.04,NW,311,4.0,5.0,90,0.00,,,0.34,Wunderground v.1.15,2013-01-18 01:25:00,
2013-01-17 20:31:00,69.8,66.4,31.04,WNW,302,4.0,4.0,89,0.00,,,0.34,Wunderground v.1.15,2013-01-18 01:31:00,
2013-01-17 20:37:00,69.7,66.3,31.05,WNW,292,4.0,5.0,89,0.00,,,0.34,Wunderground v.1.15,2013-01-18 01:37:00,
2013-01-17 20:42:00,69.7,66.3,31.05,NNW,341,3.0,4.0,89,0.00,,,0.34,Wunderground v.1.15,2013-01-18 01:42:00,
2013-01-17 20:48:00,69.4,66.0,31.05,West,260,3.0,6.0,89,0.00,,,0.34,Wunderground v.1.15,2013-01-18 01:48:00,
2013-01-17 20:53:00,69.2,65.5,31.05,WNW,295,3.0,5.0,88,0.00,,,0.34,Wunderground v.1.15,2013-01-18 01:53:00,
2013-01-17 20:59:00,69.0,65.0,31.05,NNW,330,3.0,5.0,87,0.00,,,0.34,Wunderground v.1.15,2013-01-18 01:59:00,
2013-01-17 21:04:00,68.9,65.2,31.06,NW,307,3.0,5.0,88,0.00,,,0.34,Wunderground v.1.15,2013-01-18 02:04:00,
2013-01-17 21:10:00,69.0,65.6,31.06,NNE,24,3.0,3.0,89,0.00,,,0.34,Wunderground v.1.15,2013-01-18 02:10:00,
2013-01-17 21:15:00,68.6,64.9,31.06,NW,313,3.0,3.0,88,0.00,,,0.34,Wunderground v.1.15,2013-01-18 02:15:00,
2013-01-17 21:21:00,68.6,64.9,31.06,NW,325,3.0,3.0,88,0.00,,,0.34,Wunderground v.1.15,2013-01-18 02:21:00,
2013-01-17 21:26:00,68.3,64.6,31.07,WNW,286,3.0,3.0,88,0.00,,,0.34,Wunderground v.1.15,2013-01-18 02:26:00,
2013-01-17 21:32:00,68.0,64.0,31.07,NNW,332,3.0,4.0,87,0.00,,,0.34,Wunderground v.1.15,2013-01-18 02:32:00,
2013-01-17 21:38:00,67.8,63.8,31.07,NW,309,3.0,4.0,87,0.00,,,0.34,Wunderground v.1.15,2013-01-18 02:38:00,
2013-01-17 21:43:00,67.5,63.5,31.07,NE,41,3.0,4.0,87,0.00,,,0.34,Wunderground v.1.15,2013-01-18 02:43:00,
2013-01-17 21:48:00,67.1,63.1,31.07,WNW,300,3.0,4.0,87,0.00,,,0.34,Wunderground v.1.15,2013-01-18 02:48:00,
2013-01-17 21:54:00,67.1,63.1,31.07,NNW,344,3.0,5.0,87,0.00,,,0.34,Wunderground v.1.15,2013-01-18 02:54:00,
2013-01-17 22:00:00,66.9,62.9,31.07,NNW,332,3.0,3.0,87,0.00,,,0.34,Wunderground v.1.15,2013-01-18 03:00:00,
2013-01-17 22:05:00,66.6,62.6,31.07,WNW,293,3.0,3.0,87,0.00,,,0.34,Wunderground v.1.15,2013-01-18 03:05:00,
2013-01-17 22:11:00,66.3,62.3,31.07,NNW,334,3.0,3.0,87,0.00,,,0.34,Wunderground v.1.15,2013-01-18 03:11:00,
2013-01-17 22:17:00,65.9,61.6,31.07,NW,314,3.0,3.0,86,0.00,,,0.34,Wunderground v.1.15,2013-01-18 03:17:00,
2013-01-17 22:22:00,65.7,61.7,31.07,NW,309,3.0,3.0,87,0.00,,,0.34,Wunderground v.1.15,2013-01-18 03:22:00,
2013-01-17 22:28:00,65.5,61.2,31.07,NNW,332,3.0,3.0,86,0.00,,,0.34,Wunderground v.1.15,2013-01-18 03:28:00,
2013-01-17 22:33:00,65.4,61.1,31.07,North,6,3.0,3.0,86,0.00,,,0.34,Wunderground v.1.15,2013-01-18 03:33:00,
2013-01-17 22:39:00,65.2,60.6,31.07,North,9,3.0,6.0,85,0.00,,,0.34,Wunderground v.1.15,2013-01-18 03:39:00,
2013-01-17 22:44:00,65.2,60.9,31.07,NNW,342,3.0,5.0,86,0.00,,,0.34,Wunderground v.1.15,2013-01-18 03:44:00,
2013-01-17 22:49:00,65.1,60.8,31.07,NNW,336,3.0,9.0,86,0.00,,,0.34,Wunderground v.1.15,2013-01-18 03:49:00,
2013-01-17 22:54:00,65.1,60.5,31.07,WNW,301,3.0,4.0,85,0.00,,,0.34,Wunderground v.1.15,2013-01-18 03:54:00,
2013-01-17 23:00:00,65.2,60.9,31.07,NW,308,2.0,3.0,86,0.00,,,0.34,Wunderground v.1.15,2013-01-18 04:00:00,
2013-01-17 23:05:00,65.2,60.9,31.07,NW,326,2.0,3.0,86,0.00,,,0.34,Wunderground v.1.15,2013-01-18 04:05:00,
2013-01-17 23:11:00,65.0,60.4,31.08,NNE,16,2.0,7.0,85,0.00,,,0.34,Wunderground v.1.15,2013-01-18 04:11:00,
2013-01-17 23:16:00,65.0,60.7,31.08,WNW,293,2.0,7.0,86,0.00,,,0.34,Wunderground v.1.15,2013-01-18 04:16:00,
2013-01-17 23:21:00,65.0,60.4,31.08,NNW,328,3.0,3.0,85,0.00,,,0.34,Wunderground v.1.15,2013-01-18 04:21:00,
2013-01-17 23:27:00,65.0,60.4,31.08,NE,42,2.0,3.0,85,0.00,,,0.34,Wunderground v.1.15,2013-01-18 04:27:00,
2013-01-17 23:32:00,64.9,60.6,31.08,NW,312,2.0,3.0,86,0.00,,,0.34,Wunderground v.1.15,2013-01-18 04:32:00,
2013-01-17 23:38:00,64.9,60.3,31.08,NNE,29,2.0,3.0,85,0.00,,,0.34,Wunderground v.1.15,2013-01-18 04:38:00,
2013-01-17 23:43:00,64.9,60.6,31.08,WNW,302,2.0,4.0,86,0.00,,,0.34,Wunderground v.1.15,2013-01-18 04:43:00,
2013-01-17 23:49:00,64.9,60.6,31.08,NW,309,2.0,4.0,86,0.00,,,0.34,Wunderground v.1.15,2013-01-18 04:49:00,
2013-01-17 23:55:00,65.0,60.7,31.08,NW,321,2.0,4.0,86,0.00,,,0.34,Wunderground v.1.15,2013-01-18 04:55:00,